Weather in Novotyryshkino

Russia / Novosibirsk Oblast     55°17′14″N   82°24′35″E
temp.,
°C
wind,
m/s
gust,
m/s
humid.,
%
clouds,
%
prec.,
mm/h
press.,
hPa
HPBL,
m
28 september, tue
tue2801:00+2ne348421 0.0 102463
04:00+2nne349263 0.0 102372
07:000nne35945 0.0 1023108
10:00+4ne35766 0.0 1022312
13:00+8ene445286 0.0 10211531
16:00+7ne3351100 0.0 10211235
19:00+5ene2260100 0.0 102026
22:00+4e2267100 0.0 102021
29 september, wed
wed2901:00+3e3471100 0.0 101866
04:00+1ene368193 0.0 101796
07:000ene498998 0.0 1015203
10:00+3ene61175100 0.0 1013418
13:00+8ene6855100 0.0 10111100
16:00+7ene5971100 0.9 10101086
19:00+4ne5995100 3.9 1010869
22:00+5nne5897100 1.8 1009869
30 september, thu
thu3001:00+4n5897100 4.0 1008786
04:00+2nnw5997100 2.8 1009424
07:00+2nw5997100 5.4 1010459
10:00+2wnw5997100 1.4 1012414
13:00+3wnw4896100 1.6 1013637
16:00+6wnw5676100 0.3 10141017
19:00+4w4785100 0.6 1014279
22:00+3w369192 0.1 1015203
1 october, fri
fri101:00+1w379290 0.1 1015194
04:00+1wsw479690 0.0 1014270
07:000wsw4894100 0.0 1014293
10:00+2wsw5794100 0.1 1013481
13:00+3wsw5786100 0.4 1013695
16:00+4wsw5781100 0.3 1013807
19:00+3sw61191100 0.5 1013728
22:00+3sw5897100 0.3 1013693
2 october, sat
sat201:00+2w3698100 0.6 1014394
04:00+1wnw3595100 0.1 1014393
07:00+1wnw2491100 0.2 1014332
10:00+2nw2379100 0.1 1015459
13:00+2wnw347298 0.2 1016914
16:00+4wnw3467100 0.2 10171037
19:00+2w2483100 0.6 1019140
22:00+2w228453 0.1 102050